Regional Weather Roundup
Issued by NWS Charleston, WV

Home | Current Version | Previous Version | Text Only | Print | Product List | Glossary Off
Versions: 1 2 3 4 5 6 7 8 9 10 11 12 13 14 15 16 17 18 19 20 21 22 23 24 25 26 27 28 29 30 31 32 33 34 35 36 37 38 39 40 41 42 43 44 45 46 47 48 49 50

000
ASUS41 KRLX 231610
RWRRLX
West Virginia Regional Weather Roundup
National Weather Service Charleston WV
1200 PM EDT SAT JUL 23 2016

Note: "fair" indicates few or no clouds below 12,000 feet with no
significant weather and/or obstructions to visibility.

WVZ003-231700-
Northern Panhandle of West Virginia

CITY           SKY/WX    TMP DP  RH WIND       PRES   REMARKS
WHEELING         N/A     87  72  60 W7        30.03F
$$

WVZ009-231700-
Northwest West Virginia

CITY           SKY/WX    TMP DP  RH WIND       PRES   REMARKS
PARKERSBURG      N/A     83  74  74 SW3       30.05F
$$

WVZ006-231700-
Western West Virginia

CITY           SKY/WX    TMP DP  RH WIND       PRES   REMARKS
HUNTINGTON       N/A     86  73  65 VRB3      30.04F
$$

WVZ015-231700-
West Central West Virginia

CITY           SKY/WX    TMP DP  RH WIND       PRES   REMARKS
CHARLESTON       N/A     85  68  56 VRB3      30.04F
$$

WVZ022-031-231700-
North Central West Virginia

CITY           SKY/WX    TMP DP  RH WIND       PRES   REMARKS
CLARKSBURG       N/A     84  71  65 VRB3      30.05S
MORGANTOWN       N/A     84  72  67 SW6       30.04F
$$

WVZ025-035-042-045-231700-
Southern West Virginia

CITY           SKY/WX    TMP DP  RH WIND       PRES   REMARKS
BECKLEY          N/A     82  64  54 CALM      30.13F
LOGAN            N/A     84  72  65 CALM      30.07F
BLUEFIELD        N/A     81  64  56 CALM      30.16F
LEWISBURG        N/A     80  67  63 W3        30.12S
$$

WVZ047-231700-
Northern Mountains of West Virginia

CITY           SKY/WX    TMP DP  RH WIND       PRES   REMARKS
ELKINS           N/A     83  68  60 VRB5      30.11F
$$

WVZ052-231700-
Eastern Panhandle of West Virginia

CITY           SKY/WX    TMP DP  RH WIND       PRES   REMARKS
MARTINSBURG    PTSUNNY   89  71  55 W9        29.98S
PETERSBURG       N/A     91  70  50 CALM      30.01F HX  97
$$



USA.gov is the U.S. government's official web portal to all federal, state and local government web resources and services.